Tracking 31080 objects as of 20-Jul-2025
HD Live streaming from Space Station
objects crossing your sky now

ONEWEB-0347

Track ONEWEB-0347 now!
10-day predictions
ONEWEB-0347 is classified as:


NORAD ID: 49280
Int'l Code: 2021-090B
Perigee: 1,187.2 km
Apogee: 1,190.6 km
Inclination: 87.9 °
Period: 109.0 minutes
Semi major axis: 7559 km
RCS: Unknown
Launch date: October 14, 2021
Source: United Kingdom (UK)
Launch site: VOSTOCHNY COSMODROME (VOSTO)
Your satellite tracking list
Your tracking list is empty




NASA's NSSDC Master Catalog

Two Line Element Set (TLE):
1 49280U 21090B   25200.62388263  .00000034  00000-0  51542-4 0  9990
2 49280  87.9287 340.6943 0002238 101.6849 258.4535 13.20770535187145
Source of the keplerian elements: AFSPC